Miscellaneous Local Product
Issued by NWS North Platte, NE

Home | Current Version | Previous Version | Text Only | Print | Product List | Glossary On
Versions: 1 2 3 4 5 6 7 8 9 10 11 12 13 14 15 16 17 18 19 20 21 22 23 24 25 26 27 28 29 30 31 32 33 34 35 36 37 38 39 40 41 42 43 44 45 46 47 48 49 50
000
AXUS43 KLBF 161610
MISLBF


WESTERN AND NORTH CENTRAL NEBRASKA HOURLY WEATHER ROUNDUP
NATIONAL WEATHER SERVICE NORTH PLATTE NE
1100 AM CDT WED APR 16 2014

***STATIONS NOT REPORTING VARIABLES SUCH AS SKY/WEATHER OR
PRESSURE ARE PROVIDED BY THE NEBRASKA DEPARTMENT OF
ROADS...RAWS...AND APRS NETWORKS...AND ARE NOT UNDER
NATIONAL WEATHER SERVICE QUALITY CONTROL***

...OBSERVATIONS IN AND NEAR THE EASTERN PANHANDLE OF NEBRASKA...

CITY           SKY/WX    TMP DP  RH WIND       PRES   REMARKS
PINE RIDGE     RAIN      36  34  92 NW10      29.87R FOG     WCI  28
CHADRON        LGT RAIN  39  36  89 NW13G23   29.89R FOG     WCI  31
ALLIANCE       CLOUDY    40  34  79 NW30G39   29.84R WCI  28
SIDNEY         PTSUNNY   46  30  53 NW30G43   29.88R
WHITECLAY        N/A     33  32  96 E6          N/A  WCI  27
CRESCENT LAKE    N/A     40  36  86 NW17G33     N/A  WCI  31
LISCO            N/A     48  29  47 W28         N/A
BIG SPRINGS      N/A     48  36  64 NW16        N/A
LEWELLEN         N/A     48  32  53 NW24        N/A
$$

...OBSERVATIONS IN SOUTHWEST NEBRASKA AND FAR NORTHEAST COLORADO...

CITY           SKY/WX    TMP DP  RH WIND       PRES   REMARKS
WRAY           FAIR      53  33  46 NW20G33   29.86R
HOLYOKE        FAIR      54  34  47 NW29G43   29.83R
IMPERIAL       MOSUNNY   52  34  50 NW31G40   29.80R
OGALLALA       MOSUNNY   50  35  55 NW29G39   29.80R
NORTH PLATTE   MOSUNNY   51  35  54 N26G40    29.76R
MCCOOK         MOSUNNY   56  38  50 NW24G39   29.77R
LEXINGTON      CLOUDY    54  40  59 NW26G36   29.72R
PAXTON           N/A     49  38  65 W15         N/A
SUTHERLAND       N/A     45  32  61 S23         N/A
MEDICINE CREEK   N/A     50  39  67 N17         N/A
GOTHENBURG       N/A     51  38  61 N12G25      N/A
CALLAWAY         N/A     48  39  70 N14         N/A
$$

...OBSERVATIONS IN NORTH CENTRAL NEBRASKA...

CITY           SKY/WX    TMP DP  RH WIND       PRES   REMARKS
VALENTINE      CLOUDY    34  30  85 NW15G29   29.79R FOG     WCI  24
THEDFORD       DRIZZLE   40  34  77 NW17G28   29.78R WCI  32
AINSWORTH      CLOUDY    36  31  85 NW23G30   29.76R WCI  24
O`NEILL        PTSUNNY   47  32  55 NW25G32   29.66R
ORD            MOSUNNY   51  32  48 NW24G32   29.66R
BROKEN BOW     CLOUDY    47  35  63 NW23G35   29.72R
BROWNLEE         N/A     39  34  84 NW23        N/A  WCI  28
SPRINGVIEW       N/A     34  29  82 W14G23      N/A  WCI  25
DUNNING          N/A     39  34  81 W21         N/A  WCI  29
BREWSTER         N/A     41  32  70 NW23        N/A
ROSE             N/A     38  34  85 SW28        N/A  WCI  26
NEWPORT          N/A     37  33  85 NW25        N/A  WCI  26
COMSTOCK         N/A     53  35  50 NW24        N/A
EWING            N/A     49  34  57 NW15G26     N/A
$$

...SOME WEATHER OBSERVATIONS FROM AROUND THE REGION...

CITY           SKY/WX    TMP DP  RH WIND       PRES   REMARKS
DENVER         MOSUNNY   48  25  40 N17       29.89R
LARAMIE        CLOUDY    31  24  75 NW18      29.94R WCI  19
CHEYENNE       MOSUNNY   39  23  52 NW25G36   29.92R WCI  28
SCOTTSBLUFF    PTSUNNY   46  30  53 NW26G32   29.90R
RAPID CITY     PTSUNNY   36  29  75 N24G30    29.89R WCI  24
PIERRE         CLOUDY    31  27  85 N16       29.87R WCI  20
WINNER         LGT RAIN  33  30  88 N22G31    29.78R WCI  21
SIOUX FALLS    LGT RAIN  43  34  70 S20G25    29.60F
OMAHA          CLOUDY    55  27  34 S29G37    29.73F
GRAND ISLAND   CLOUDY    53  25  33 SW16      29.66R
KANSAS CITY    CLOUDY    56  28  34 S29G37    29.93R
WICHITA        PTSUNNY   60  27  28 S35G41    29.84S
HAYS           SUNNY     63  34  34 NW18      29.75R
LIBERAL        MOSUNNY   61  30  31 N22G28    29.85R
GOODLAND       MOSUNNY   53  31  42 N35G48    29.82R
$$



USA.gov is the U.S. government's official web portal to all federal, state and local government web resources and services.